EW9996 Weather Reports


Display with metric or nautical units.
time (UTC)temp
F
wind
direction
speed
MPH
gust
MPH
rain 1hr
in
rain 24hr
in
rain mn
in
humidity
%
barometer
mb
20260509100049 48 0 0.0 0.0 0.00 0.00 0.00 86 1009.3
20260509094550 48 0 0.0 0.0 0.00 0.00 0.00 86 1009.1
20260509093054 48 0 0.0 0.0 0.00 0.00 0.00 86 1009.2
20260509091555 49 0 0.0 0.0 0.00 0.00 0.00 85 1009.1
20260509090052 48 0 0.0 0.0 0.00 0.00 0.00 86 1009.0
20260509084550 48 0 0.0 0.0 0.00 0.00 0.00 86 1009.1
20260509083052 48 0 0.0 0.0 0.00 0.00 0.00 86 1009.2
20260509081551 48 0 0.0 0.0 0.00 0.00 0.00 85 1008.8
20260509080052 48 0 0.0 0.0 0.00 0.00 0.00 85 1008.8
20260509074603 48 0 0.0 0.0 0.00 0.00 0.00 85 1009.0
20260509073047 49 0 0.0 0.0 0.00 0.00 0.00 84 1008.9
20260509071545 49 0 0.0 0.0 0.00 0.00 0.00 84 1009.0
20260509070051 49 0 0.0 0.0 0.00 0.00 0.00 84 1009.0
20260509064558 49 0 0.0 0.0 0.00 0.00 0.00 83 1009.5
20260509063049 49 0 0.0 0.0 0.00 0.00 0.00 82 1009.7
20260509061559 50 0 0.0 0.0 0.00 0.00 0.00 81 1009.8
20260509060053 50 0 0.0 0.0 0.00 0.00 0.00 81 1010.0
20260509054553 51 0 0.0 0.0 0.00 0.00 0.00 78 1010.3
20260509053049 51 0 0.0 0.0 0.00 0.00 0.00 78 1010.3
20260509051553 50 0 0.0 0.0 0.00 0.00 0.00 79 1010.6
20260509050056 50 0 0.0 0.0 0.00 0.00 0.00 78 1010.8
20260509044550 50 0 0.0 0.0 0.00 0.00 0.00 78 1010.7
20260509043056 51 0 0.0 0.0 0.00 0.00 0.00 78 1011.3
20260509041553 51 0 0.0 0.0 0.00 0.00 0.00 77 1011.3
20260509040054 51 0 0.0 0.0 0.00 0.00 0.00 76 1011.0
20260509034553 51 0 0.0 0.0 0.00 0.00 0.00 76 1011.0
20260509033054 51 0 0.0 0.0 0.00 0.00 0.00 76 1010.8
20260509031551 51 0 0.0 0.0 0.00 0.00 0.00 76 1010.9
20260509030053 52 0 0.0 0.0 0.00 0.00 0.00 76 1010.8
20260509024548 51 0 0.0 0.0 0.00 0.00 0.00 75 1010.4
20260509023049 51 0 0.0 0.0 0.00 0.00 0.00 74 1010.6
20260509021549 52 0 0.0 0.0 0.00 0.00 0.00 74 1010.4
20260509020051 52 0 0.0 0.0 0.00 0.00 0.00 72 1010.8
20260509014546 53 0 0.0 0.0 0.00 0.00 0.00 71 1010.9
20260509013053 53 0 0.0 0.0 0.00 0.00 0.00 69 1010.7
20260509011550 53 0 0.0 0.0 0.00 0.00 0.00 67 1010.8
20260509010052 54 0 0.0 0.0 0.00 0.00 0.00 66 1010.5
20260509004606 54 0 0.0 0.0 0.00 0.00 0.00 64 1010.2
20260509003051 55 0 0.0 0.0 0.00 0.00 0.00 62 1010.1
20260509001554 56 0 0.0 0.0 0.00 0.00 0.00 59 1009.9
20260509000052 57 0 0.0 0.0 0.00 0.00 0.00 59 1009.9
20260508234551 57 0 0.0 0.0 0.00 0.00 0.00 58 1010.1
20260508233047 57 0 0.0 0.0 0.00 0.00 0.00 57 1010.2
20260508231555 58 0 0.0 0.0 0.00 0.00 0.00 57 1010.2
20260508230055 58 0 0.0 0.0 0.00 0.00 0.00 54 1009.9
20260508224552 58 0 0.0 0.0 0.00 0.00 0.00 56 1009.8
20260508223052 58 0 0.0 0.0 0.00 0.00 0.00 57 1009.8
20260508221552 58 0 0.0 0.0 0.00 0.00 0.00 55 1010.0
20260508220052 58 0 0.0 0.0 0.00 0.00 0.00 56 1010.0
20260508214604 58 0 0.0 0.0 0.00 0.00 0.00 55 1010.2
20260508213049 59 0 0.0 0.0 0.00 0.00 0.00 55 1010.2
20260508211555 59 0 0.0 0.0 0.00 0.00 0.00 55 1010.1
20260508210055 59 0 0.0 0.0 0.00 0.00 0.00 55 1010.0
20260508204549 59 0 0.0 0.0 0.00 0.00 0.00 54 1009.9
20260508203051 59 0 0.0 0.0 0.00 0.00 0.00 58 1009.8
20260508201553 58 0 0.0 0.0 0.00 0.00 0.00 61 1010.1
20260508200052 57 0 0.0 0.0 0.00 0.00 0.00 66 1010.5
20260508194551 56 0 0.0 0.0 0.00 0.00 0.00 64 1010.7
20260508193102 61 0 0.0 0.0 0.00 0.00 0.00 47 1010.4
20260508191555 61 0 0.0 1.0 0.00 0.00 0.00 47 1010.1
20260508184555 61 0 0.0 0.0 0.00 0.00 0.00 45 1010.4
20260508183108 62 0 0.0 0.0 0.00 0.00 0.00 43 1010.4
20260508181550 62 0 0.0 0.0 0.00 0.00 0.00 41 1010.2
20260508180059 63 0 0.0 0.0 0.00 0.00 0.00 40 1010.3
20260508174600 64 0 0.0 0.0 0.00 0.00 0.00 38 1010.7
20260508173050 62 0 0.0 0.0 0.00 0.00 0.00 39 1010.7
20260508171548 63 0 0.0 0.0 0.00 0.00 0.00 42 1010.9
20260508170049 61 0 0.0 0.0 0.00 0.00 0.00 42 1011.2
20260508164552 61 0 0.0 0.0 0.00 0.00 0.00 42 1011.2
20260508163047 60 0 0.0 0.0 0.00 0.00 0.00 44 1011.3
20260508161554 60 0 0.0 0.0 0.00 0.00 0.00 44 1011.5
20260508160054 60 0 0.0 1.0 0.00 0.00 0.00 47 1011.4
20260508154549 59 0 0.0 0.0 0.00 0.00 0.00 45 1011.5
20260508153056 60 0 0.0 0.0 0.00 0.00 0.00 44 1011.7
20260508151552 58 0 0.0 0.0 0.00 0.00 0.00 44 1011.7
20260508150051 58 0 0.0 0.0 0.00 0.00 0.00 46 1011.7
20260508144553 57 0 0.0 0.0 0.00 0.00 0.00 52 1011.7
20260508143054 55 0 0.0 0.0 0.00 0.00 0.00 50 1011.8
20260508141603 55 0 0.0 0.0 0.00 0.00 0.00 52 1012.0
20260508140052 55 0 0.0 0.0 0.00 0.00 0.00 51 1011.9
20260508134552 55 0 0.0 0.0 0.00 0.00 0.00 52 1011.9
20260508133052 53 0 0.0 0.0 0.00 0.00 0.00 56 1012.2
20260508131604 51 0 0.0 0.0 0.00 0.00 0.00 58 1012.3
20260508130049 48 0 0.0 0.0 0.00 0.00 0.00 69 1012.3
20260508124552 45 0 0.0 0.0 0.00 0.00 0.00 73 1012.4
20260508123111 43 0 0.0 0.0 0.00 0.00 0.00 75 1012.4
20260508121601 42 0 0.0 0.0 0.00 0.00 0.00 77 1012.6
20260508120107 41 0 0.0 0.0 0.00 0.00 0.00 80 1012.6
20260508114559 40 0 0.0 0.0 0.00 0.00 0.00 81 1012.5
20260508113107 39 0 0.0 0.0 0.00 0.00 0.00 82 1012.7
20260508111551 39 0 0.0 0.0 0.00 0.00 0.00 83 1012.5
20260508110105 38 0 0.0 0.0 0.00 0.00 0.00 84 1012.2
20260508104556 37 0 0.0 0.0 0.00 0.00 0.00 84 1012.2
20260508103100 36 0 0.0 0.0 0.00 0.00 0.00 84 1012.2
20260508101554 36 0 0.0 0.0 0.00 0.00 0.00 84 1011.8